Content
SEND FEEDBACK

Daily
Averages
Monthly
Summary
United Kingdom

COUNTY OAK, ENGLAND


Home > Europe > United Kingdom > England
Elevation: 203 feet     Latitude: 51 01N     Longitude: 000 10W

WEATHER
 
SELECT A DAY
Number of Records: 292,878;   Date Range: 7/1/96 - 7/27/14
 
SHARE

PRINT THIS DATA

[ ← Previous Day ]
WEATHER ALMANAC - JANUARY 6, 2013
[ Next Day → ]
[ °C ]   °F
Weather ElementAverageHighLow
Temperature44.4 °F48.2 °F (7:50 pm)42.8 °F (12:50 am)
Dewpoint43.1 °F44.6 °F (2:20 pm)41 °F (12:50 am)
Humidity94.7 %100 % (4:20 am)87 % (7:50 pm)
Barometer30.48 in30.54 in (12:50 am)30.42 in (5:20 pm)
Wind Speed4.2 mph9.2 mph (9:50 pm)
Weather ElementAverage
Visibility2.6 mi
Wind DirectionSE (131.3 °)

Weather ElementTotal
Precipitation---
Heating Degree Days19.5 (Base 65)
Averaged from 47 records on January 6, 2013
WEATHER CONDITIONS BREAKOUT
WIND DIRECTION BREAKOUT
WEATHER BY HOUR - JANUARY 6, 2013
[ °C ]   °F
Local TimeTemperatureDewpointHumidityBarometerVisibilityWind DirectionWind SpeedGust SpeedPrecipitationEventsConditions
12:50 AM42.8 °F41.0 °F93 %30.54 inCalmClear
1:20 AM42.8 °F41.0 °F93 %30.51 in5.6 miSSW (200°)3.5 mph
1:50 AM42.8 °F41.0 °F93 %30.51 in4.3 miSW (230°)3.5 mph
2:20 AM42.8 °F41.0 °F93 %30.51 in2.8 miVariable2.3 mphMist
2:50 AM42.8 °F41.0 °F93 %30.51 in1.6 miVariable3.5 mphMostly Cloudy
3:20 AM44.6 °F42.8 °F93 %30.51 in0.4 miWSW (240°)4.6 mphFogFog
3:50 AM44.6 °F42.8 °F93 %30.54 in0.2 miWSW (240°)4.6 mphFogFog
4:20 AM42.8 °F42.8 °F100 %30.54 in0.2 miWSW (250°)4.6 mphFogFog
4:50 AM44.6 °F42.8 °F93 %30.51 in0.2 miWSW (250°)5.8 mphFogFog
5:20 AM44.6 °F42.8 °F93 %30.51 in0.2 miWNW (300°)3.5 mphFogFog
5:50 AM42.8 °F41.0 °F93 %30.51 in0.3 miVariable3.5 mphFogFog
6:20 AM42.8 °F41.0 °F93 %30.51 in0.3 miVariable2.3 mphFogFog
6:50 AM42.8 °F42.8 °F100 %30.51 in0.4 miVariable3.5 mphFogFog
7:20 AM42.8 °F42.8 °F100 %30.51 in0.5 miVariable3.5 mphFogFog
7:50 AM42.8 °F41.0 °F93 %30.51 in0.2 miSW (230°)4.6 mphFogFog
8:20 AM42.8 °F41.0 °F93 %30.51 in0.2 miVariable2.3 mphFogFog
8:50 AM42.8 °F42.8 °F100 %30.51 in0.2 miVariable3.5 mphFogFog
9:20 AM42.8 °F42.8 °F100 %30.51 in0.4 miWest (270°)4.6 mphFogFog
9:50 AM42.8 °F42.8 °F100 %30.51 in0.2 miSW (230°)4.6 mphFogFog
10:20 AM42.8 °F42.8 °F100 %30.51 in0.3 miVariable3.5 mphFogFog
10:50 AM42.8 °F42.8 °F100 %30.51 in0.3 miVariable2.3 mphFogFog
11:20 AM42.8 °F42.8 °F100 %30.51 in0.4 miVariable3.5 mphFogFog
11:50 AM42.8 °F42.8 °F100 %30.51 in0.4 miSSW (210°)3.5 mphFogFog
12:20 PM42.8 °F42.8 °F100 %30.51 in0.5 miVariable3.5 mphFogFog
12:50 PM42.8 °F42.8 °F100 %30.51 in0.6 miVariable3.5 mphFogFog
1:20 PM44.6 °F42.8 °F93 %30.48 in1.1 miVariable3.5 mphMostly Cloudy
1:50 PM44.6 °F42.8 °F93 %30.48 in2.2 miSW (230°)3.5 mphMostly Cloudy
2:20 PM44.6 °F44.6 °F100 %30.48 in4.3 miSW (230°)3.5 mphMostly Cloudy
2:50 PM44.6 °F44.6 °F100 %30.45 in3.7 miVariable2.3 mphMostly Cloudy
3:20 PM44.6 °F44.6 °F100 %30.45 in3.1 miCalmHaze
3:50 PM46.4 °F44.6 °F93 %30.45 inVariable2.3 mphHaze
4:20 PM46.4 °F44.6 °F93 %30.45 in3.1 miVariable2.3 mphHaze
4:50 PM46.4 °F44.6 °F93 %30.45 in2.5 miVariable2.3 mphHaze
5:20 PM46.4 °F44.6 °F93 %30.42 in3.1 miWSW (250°)2.3 mphHaze
5:50 PM46.4 °F44.6 °F93 %30.42 in3.1 miSW (230°)2.3 mphHaze
6:20 PM46.4 °F44.6 °F93 %30.42 in3.1 miSSW (200°)4.6 mphHaze
6:50 PM46.4 °F44.6 °F93 %30.42 in4.3 miSW (230°)4.6 mphMostly Cloudy
7:20 PM46.4 °F44.6 °F93 %30.42 in6.2 miSW (230°)4.6 mphMostly Cloudy
7:50 PM48.2 °F44.6 °F87 %30.42 in6.2 miSW (220°)8.1 mphMostly Cloudy
8:20 PM46.4 °F44.6 °F93 %30.42 in6.2 miSW (220°)6.9 mphMostly Cloudy
8:50 PM46.4 °F44.6 °F93 %30.42 in6.2 miSW (230°)6.9 mphMostly Cloudy
9:20 PM46.4 °F44.6 °F93 %30.42 in6.2 miSSW (200°)8.1 mphMostly Cloudy
9:50 PM46.4 °F44.6 °F93 %30.42 in6.2 miSouth (190°)9.2 mphOvercast
10:20 PM46.4 °F42.8 °F87 %30.42 in6.2 miSW (220°)8.1 mphOvercast
10:50 PM46.4 °F42.8 °F87 %30.42 in6.2 miSW (230°)8.1 mphOvercast
11:20 PM46.4 °F42.8 °F87 %30.42 in6.2 miSSW (210°)8.1 mphOvercast
11:50 PM44.6 °F42.8 °F93 %30.42 in6.2 miSSW (200°)6.9 mphOvercast
Hourly data recorded from EGKK, located miles away from County Oak, England







STORIES FROM OUR PARTNERS